Time,TemperatureF,DewpointF,PressureIn,WindDirection,WindDirectionDegrees,WindSpeedMPH,WindSpeedGustMPH,Humidity,HourlyPrecipIn,Conditions,Clouds,dailyrainin,SoftwareType,DateUTC
2013-02-28 00:04:00,40.1,36.8,30.53,NNE,23,3.4,3.8,88,0.00,,,0.00,WUHU216HW,2013-02-28 08:04:00,
2013-02-28 00:09:00,40.1,37.2,30.53,North,0,3.4,3.8,89,0.00,,,0.00,WUHU216HW,2013-02-28 08:09:00,
2013-02-28 00:14:00,40.1,37.2,30.53,NE,45,2.2,3.6,89,0.00,,,0.00,WUHU216HW,2013-02-28 08:14:00,
2013-02-28 00:19:00,40.0,37.0,30.53,NNE,23,2.5,3.6,89,0.00,,,0.00,WUHU216HW,2013-02-28 08:19:00,
2013-02-28 00:24:00,40.0,37.0,30.53,NE,45,2.5,3.1,89,0.00,,,0.00,WUHU216HW,2013-02-28 08:24:00,
2013-02-28 00:29:00,40.0,37.0,30.53,NNE,23,2.5,3.1,89,0.00,,,0.00,WUHU216HW,2013-02-28 08:29:00,
2013-02-28 00:34:00,39.8,36.8,30.53,NE,45,2.9,3.4,89,0.00,,,0.00,WUHU216HW,2013-02-28 08:34:00,
2013-02-28 00:39:00,39.8,36.8,30.53,NE,45,1.8,3.4,89,0.00,,,0.00,WUHU216HW,2013-02-28 08:39:00,
2013-02-28 00:44:00,39.8,36.8,30.53,NE,45,2.0,2.9,89,0.00,,,0.00,WUHU216HW,2013-02-28 08:44:00,
2013-02-28 00:49:00,39.6,36.6,30.53,NE,45,1.8,2.9,89,0.00,,,0.00,WUHU216HW,2013-02-28 08:49:00,
2013-02-28 00:54:00,39.6,36.9,30.53,NE,45,2.5,2.9,90,0.00,,,0.00,WUHU216HW,2013-02-28 08:54:00,
2013-02-28 00:59:00,39.6,36.6,30.52,NNE,23,2.2,2.9,89,0.00,,,0.00,WUHU216HW,2013-02-28 08:59:00,
2013-02-28 01:04:00,39.6,36.6,30.53,NE,45,2.5,3.4,89,0.00,,,0.00,WUHU216HW,2013-02-28 09:04:00,
2013-02-28 01:09:00,39.4,36.7,30.53,NE,45,1.8,4.0,90,0.00,,,0.00,WUHU216HW,2013-02-28 09:09:00,
2013-02-28 01:14:00,39.4,36.5,30.52,NNE,23,1.8,4.0,89,0.00,,,0.00,WUHU216HW,2013-02-28 09:14:00,
2013-02-28 01:19:00,39.4,36.7,30.52,North,0,2.0,3.4,90,0.00,,,0.00,WUHU216HW,2013-02-28 09:19:00,
2013-02-28 01:24:00,39.4,36.7,30.52,NNE,23,2.0,2.7,90,0.00,,,0.00,WUHU216HW,2013-02-28 09:24:00,
2013-02-28 01:29:00,39.2,36.5,30.52,North,0,2.9,3.6,90,0.00,,,0.00,WUHU216HW,2013-02-28 09:29:00,
2013-02-28 01:34:00,39.2,36.5,30.52,NNE,23,1.1,4.0,90,0.00,,,0.00,WUHU216HW,2013-02-28 09:34:00,
2013-02-28 01:39:00,39.2,36.5,30.52,North,0,2.7,4.0,90,0.00,,,0.00,WUHU216HW,2013-02-28 09:39:00,
2013-02-28 01:44:00,39.2,36.5,30.52,NNE,23,3.4,3.4,90,0.00,,,0.00,WUHU216HW,2013-02-28 09:44:00,
2013-02-28 01:49:00,39.2,36.8,30.53,NE,45,2.7,3.8,91,0.00,,,0.00,WUHU216HW,2013-02-28 09:49:00,
2013-02-28 01:54:00,39.1,36.6,30.52,NNE,23,3.1,3.8,91,0.00,,,0.00,WUHU216HW,2013-02-28 09:54:00,
2013-02-28 01:59:00,39.1,36.6,30.52,NNE,23,3.4,3.6,91,0.00,,,0.00,WUHU216HW,2013-02-28 09:59:00,
2013-02-28 02:04:00,39.2,36.5,30.52,NNE,23,4.0,4.0,90,0.00,,,0.00,WUHU216HW,2013-02-28 10:04:00,
2013-02-28 02:09:00,39.1,36.4,30.52,NNE,23,4.7,4.7,90,0.00,,,0.00,WUHU216HW,2013-02-28 10:09:00,
2013-02-28 02:14:00,39.1,36.4,30.52,NNE,23,3.6,4.7,90,0.00,,,0.00,WUHU216HW,2013-02-28 10:14:00,
2013-02-28 02:19:00,39.1,36.6,30.52,North,0,6.0,6.7,91,0.00,,,0.00,WUHU216HW,2013-02-28 10:19:00,
2013-02-28 02:24:00,39.1,36.6,30.52,NE,45,2.5,6.7,91,0.00,,,0.00,WUHU216HW,2013-02-28 10:24:00,
2013-02-28 02:29:00,39.2,36.8,30.51,NE,45,4.7,6.3,91,0.00,,,0.00,WUHU216HW,2013-02-28 10:29:00,
2013-02-28 02:34:00,39.2,36.8,30.51,NE,45,4.3,6.0,91,0.00,,,0.00,WUHU216HW,2013-02-28 10:34:00,
2013-02-28 02:39:00,39.2,36.5,30.51,NE,45,3.1,6.7,90,0.00,,,0.00,WUHU216HW,2013-02-28 10:39:00,
2013-02-28 02:44:00,39.2,36.5,30.51,North,0,4.0,6.7,90,0.00,,,0.00,WUHU216HW,2013-02-28 10:44:00,
2013-02-28 02:49:00,39.2,36.5,30.51,NE,45,2.9,4.7,90,0.00,,,0.00,WUHU216HW,2013-02-28 10:49:00,
2013-02-28 02:54:00,39.2,36.8,30.51,NE,45,3.4,6.9,91,0.00,,,0.00,WUHU216HW,2013-02-28 10:54:00,
2013-02-28 02:59:00,39.2,36.5,30.51,NNE,23,3.4,6.9,90,0.00,,,0.00,WUHU216HW,2013-02-28 10:59:00,
2013-02-28 03:04:00,39.2,36.5,30.50,NE,45,6.5,6.5,90,0.00,,,0.00,WUHU216HW,2013-02-28 11:04:00,
2013-02-28 03:09:00,39.2,36.8,30.49,NNE,23,4.7,6.5,91,0.00,,,0.00,WUHU216HW,2013-02-28 11:09:00,
2013-02-28 03:14:00,39.2,36.5,30.49,NNE,23,3.4,5.8,90,0.00,,,0.00,WUHU216HW,2013-02-28 11:14:00,
2013-02-28 03:19:00,39.2,36.5,30.48,NE,45,3.4,5.6,90,0.00,,,0.00,WUHU216HW,2013-02-28 11:19:00,
2013-02-28 03:24:00,39.2,36.5,30.48,NNE,23,6.0,6.0,90,0.00,,,0.00,WUHU216HW,2013-02-28 11:24:00,
2013-02-28 03:29:00,39.2,36.5,30.48,NE,45,4.0,6.0,90,0.00,,,0.00,WUHU216HW,2013-02-28 11:29:00,
2013-02-28 03:34:00,39.2,36.5,30.47,NE,45,6.0,6.0,90,0.00,,,0.00,WUHU216HW,2013-02-28 11:34:00,
2013-02-28 03:39:00,39.2,36.5,30.47,NNE,23,4.3,6.9,90,0.00,,,0.00,WUHU216HW,2013-02-28 11:39:00,
2013-02-28 03:44:00,39.2,36.5,30.47,NE,45,4.5,6.9,90,0.00,,,0.00,WUHU216HW,2013-02-28 11:44:00,
2013-02-28 03:49:00,39.2,36.5,30.47,North,0,2.9,5.8,90,0.00,,,0.00,WUHU216HW,2013-02-28 11:49:00,
2013-02-28 03:54:00,39.2,36.5,30.48,North,0,2.5,5.4,90,0.00,,,0.00,WUHU216HW,2013-02-28 11:54:00,
2013-02-28 03:59:00,39.2,36.5,30.48,North,0,3.4,4.9,90,0.00,,,0.00,WUHU216HW,2013-02-28 11:59:00,
2013-02-28 04:04:00,39.2,36.5,30.48,NE,45,3.8,6.3,90,0.00,,,0.00,WUHU216HW,2013-02-28 12:04:00,
2013-02-28 04:09:00,39.2,36.5,30.48,NNE,23,4.0,6.3,90,0.00,,,0.00,WUHU216HW,2013-02-28 12:09:00,
2013-02-28 04:14:00,39.2,36.5,30.48,North,0,5.1,6.3,90,0.00,,,0.00,WUHU216HW,2013-02-28 12:14:00,
2013-02-28 04:19:00,39.2,36.5,30.48,NE,45,3.4,6.3,90,0.00,,,0.00,WUHU216HW,2013-02-28 12:19:00,
2013-02-28 04:24:00,39.2,36.3,30.48,NNE,23,4.0,6.3,89,0.00,,,0.00,WUHU216HW,2013-02-28 12:24:00,
2013-02-28 04:29:00,39.2,36.3,30.48,NNE,23,6.9,6.9,89,0.00,,,0.00,WUHU216HW,2013-02-28 12:29:00,
2013-02-28 04:34:00,39.2,36.3,30.48,NE,45,3.4,6.9,89,0.00,,,0.00,WUHU216HW,2013-02-28 12:34:00,
2013-02-28 04:39:00,39.2,36.3,30.48,NE,45,4.5,6.3,89,0.00,,,0.00,WUHU216HW,2013-02-28 12:39:00,
2013-02-28 04:44:00,39.2,36.3,30.48,NNE,23,4.5,4.5,89,0.00,,,0.00,WUHU216HW,2013-02-28 12:44:00,
2013-02-28 04:49:00,39.4,36.5,30.48,NE,45,4.7,4.7,89,0.00,,,0.00,WUHU216HW,2013-02-28 12:49:00,
2013-02-28 04:54:00,39.4,36.5,30.48,NNE,23,4.7,4.7,89,0.00,,,0.00,WUHU216HW,2013-02-28 12:54:00,
2013-02-28 04:59:00,39.4,36.5,30.48,NE,45,5.8,8.5,89,0.00,,,0.00,WUHU216HW,2013-02-28 12:59:00,
2013-02-28 05:04:00,39.4,36.5,30.48,NE,45,6.3,8.5,89,0.00,,,0.00,WUHU216HW,2013-02-28 13:04:00,
2013-02-28 05:09:00,39.4,36.5,30.48,North,0,3.8,7.6,89,0.00,,,0.00,WUHU216HW,2013-02-28 13:09:00,
2013-02-28 05:14:00,39.4,36.2,30.48,NNE,23,4.7,7.6,88,0.00,,,0.00,WUHU216HW,2013-02-28 13:14:00,
2013-02-28 05:19:00,39.4,36.2,30.48,NNE,23,3.8,4.7,88,0.00,,,0.00,WUHU216HW,2013-02-28 13:19:00,
2013-02-28 05:24:00,39.4,36.2,30.48,NNE,23,2.2,3.8,88,0.00,,,0.00,WUHU216HW,2013-02-28 13:24:00,
2013-02-28 05:29:00,39.4,36.2,30.48,NE,45,2.9,4.5,88,0.00,,,0.00,WUHU216HW,2013-02-28 13:29:00,
2013-02-28 05:34:00,39.4,36.2,30.48,NE,45,2.5,4.5,88,0.00,,,0.00,WUHU216HW,2013-02-28 13:34:00,
2013-02-28 05:39:00,39.4,36.2,30.48,NNE,23,2.9,4.7,88,0.00,,,0.00,WUHU216HW,2013-02-28 13:39:00,
2013-02-28 05:44:00,39.4,36.2,30.47,NE,45,2.5,4.7,88,0.00,,,0.00,WUHU216HW,2013-02-28 13:44:00,
2013-02-28 05:49:00,39.6,36.4,30.47,NNE,23,1.8,3.1,88,0.00,,,0.00,WUHU216HW,2013-02-28 13:49:00,
2013-02-28 05:54:00,39.6,36.4,30.47,NE,45,1.6,3.4,88,0.00,,,0.00,WUHU216HW,2013-02-28 13:54:00,
2013-02-28 05:59:00,39.6,36.4,30.47,NNE,23,2.5,3.4,88,0.00,,,0.00,WUHU216HW,2013-02-28 13:59:00,
2013-02-28 06:04:00,39.6,36.4,30.47,NNE,23,0.7,2.7,88,0.00,,,0.00,WUHU216HW,2013-02-28 14:04:00,
2013-02-28 06:09:00,39.6,36.4,30.47,North,0,1.1,2.7,88,0.00,,,0.00,WUHU216HW,2013-02-28 14:09:00,
2013-02-28 06:14:00,39.6,36.4,30.47,North,0,0.0,1.8,88,0.00,,,0.00,WUHU216HW,2013-02-28 14:14:00,
2013-02-28 06:19:00,39.6,36.4,30.47,North,0,0.7,0.7,88,0.00,,,0.00,WUHU216HW,2013-02-28 14:19:00,
2013-02-28 06:24:00,39.6,36.4,30.47,North,0,1.3,1.3,88,0.00,,,0.00,WUHU216HW,2013-02-28 14:24:00,
2013-02-28 06:29:00,39.6,36.4,30.47,NNE,23,0.9,1.3,88,0.00,,,0.00,WUHU216HW,2013-02-28 14:29:00,
2013-02-28 06:34:00,39.6,36.4,30.47,NNE,23,1.3,1.6,88,0.00,,,0.00,WUHU216HW,2013-02-28 14:34:00,
2013-02-28 06:39:00,39.6,36.4,30.47,NNE,23,1.3,1.8,88,0.00,,,0.00,WUHU216HW,2013-02-28 14:39:00,
2013-02-28 06:44:00,39.6,36.6,30.46,NNE,23,2.2,2.5,89,0.00,,,0.00,WUHU216HW,2013-02-28 14:44:00,
2013-02-28 06:49:00,39.6,36.6,30.45,NE,45,2.5,2.9,89,0.00,,,0.00,WUHU216HW,2013-02-28 14:49:00,
2013-02-28 06:54:00,39.6,36.6,30.46,NE,45,1.1,2.9,89,0.00,,,0.00,WUHU216HW,2013-02-28 14:54:00,
2013-02-28 06:59:00,39.6,36.6,30.46,NE,45,1.1,2.2,89,0.00,,,0.00,WUHU216HW,2013-02-28 14:59:00,
2013-02-28 07:04:00,39.6,36.4,30.45,NE,45,1.3,2.7,88,0.00,,,0.00,WUHU216HW,2013-02-28 15:04:00,
2013-02-28 07:09:00,39.6,36.6,30.45,NE,45,2.5,2.7,89,0.00,,,0.00,WUHU216HW,2013-02-28 15:09:00,
2013-02-28 07:14:00,39.6,36.6,30.45,NNE,23,2.0,2.5,89,0.00,,,0.00,WUHU216HW,2013-02-28 15:14:00,
2013-02-28 07:19:00,39.6,36.6,30.45,North,0,0.4,2.0,89,0.00,,,0.00,WUHU216HW,2013-02-28 15:19:00,
2013-02-28 07:24:00,39.8,36.8,30.45,North,0,1.1,1.6,89,0.00,,,0.00,WUHU216HW,2013-02-28 15:24:00,
2013-02-28 07:29:00,39.8,36.8,30.45,NNE,23,1.6,1.6,89,0.00,,,0.00,WUHU216HW,2013-02-28 15:29:00,
2013-02-28 07:34:00,39.8,36.8,30.45,NE,45,1.8,1.8,89,0.00,,,0.00,WUHU216HW,2013-02-28 15:34:00,
2013-02-28 07:39:00,39.8,37.1,30.45,North,0,1.8,2.5,90,0.00,,,0.00,WUHU216HW,2013-02-28 15:39:00,
2013-02-28 07:44:00,40.0,37.3,30.45,NE,45,3.4,3.4,90,0.01,,,0.01,WUHU216HW,2013-02-28 15:44:00,
2013-02-28 07:49:00,40.0,37.0,30.45,East,90,0.9,3.4,89,0.01,,,0.01,WUHU216HW,2013-02-28 15:49:00,
2013-02-28 07:54:00,40.0,37.0,30.46,ENE,68,0.7,1.8,89,0.01,,,0.01,WUHU216HW,2013-02-28 15:54:00,
2013-02-28 07:59:00,40.0,37.0,30.46,NE,45,0.2,1.1,89,0.01,,,0.01,WUHU216HW,2013-02-28 15:59:00,
2013-02-28 08:04:00,40.1,37.2,30.47,NE,45,0.7,0.7,89,0.01,,,0.01,WUHU216HW,2013-02-28 16:04:00,
2013-02-28 08:09:00,40.1,37.2,30.46,NE,45,1.3,1.6,89,0.01,,,0.01,WUHU216HW,2013-02-28 16:09:00,
2013-02-28 08:14:00,40.3,37.6,30.46,NNE,23,4.0,4.0,90,0.01,,,0.01,WUHU216HW,2013-02-28 16:14:00,
2013-02-28 08:19:00,40.3,37.6,30.45,NE,45,3.4,4.5,90,0.01,,,0.01,WUHU216HW,2013-02-28 16:19:00,
2013-02-28 08:24:00,40.3,37.4,30.45,SE,135,1.3,4.5,89,0.01,,,0.01,WUHU216HW,2013-02-28 16:24:00,
2013-02-28 08:29:00,40.3,37.4,30.45,NE,45,1.8,1.8,89,0.02,,,0.02,WUHU216HW,2013-02-28 16:29:00,
2013-02-28 08:34:00,40.5,37.5,30.45,East,90,0.4,2.7,89,0.02,,,0.02,WUHU216HW,2013-02-28 16:34:00,
2013-02-28 08:39:00,40.5,37.5,30.45,South,180,0.0,2.7,89,0.02,,,0.02,WUHU216HW,2013-02-28 16:39:00,
2013-02-28 08:44:00,40.7,37.7,30.45,NE,45,1.8,1.8,89,0.01,,,0.02,WUHU216HW,2013-02-28 16:44:00,
2013-02-28 08:49:00,40.9,37.9,30.45,NE,45,1.3,2.5,89,0.02,,,0.02,WUHU216HW,2013-02-28 16:49:00,
2013-02-28 08:54:00,40.9,37.9,30.45,ENE,68,3.1,3.1,89,0.02,,,0.03,WUHU216HW,2013-02-28 16:54:00,
2013-02-28 08:59:00,41.0,38.1,30.45,NE,45,3.8,3.8,89,0.02,,,0.03,WUHU216HW,2013-02-28 16:59:00,
2013-02-28 09:04:00,41.0,38.1,30.44,ENE,68,4.7,4.7,89,0.02,,,0.03,WUHU216HW,2013-02-28 17:04:00,
2013-02-28 09:09:00,40.9,37.9,30.44,East,90,4.3,4.7,89,0.02,,,0.03,WUHU216HW,2013-02-28 17:09:00,
2013-02-28 09:14:00,40.9,37.9,30.44,NE,45,2.9,5.4,89,0.02,,,0.03,WUHU216HW,2013-02-28 17:14:00,
2013-02-28 09:19:00,40.9,37.9,30.44,NNE,23,2.7,5.4,89,0.02,,,0.03,WUHU216HW,2013-02-28 17:19:00,
2013-02-28 09:24:00,40.9,37.9,30.44,NNE,23,4.7,7.2,89,0.01,,,0.03,WUHU216HW,2013-02-28 17:24:00,
2013-02-28 09:29:00,40.9,38.2,30.44,NNE,23,4.0,7.2,90,0.01,,,0.03,WUHU216HW,2013-02-28 17:29:00,
2013-02-28 09:34:00,40.9,38.2,30.44,NNE,23,4.3,5.6,90,0.01,,,0.03,WUHU216HW,2013-02-28 17:34:00,
2013-02-28 09:39:00,40.9,38.2,30.44,NNE,23,6.9,6.9,90,0.02,,,0.04,WUHU216HW,2013-02-28 17:39:00,
2013-02-28 09:44:00,41.0,38.3,30.44,ENE,68,2.7,6.9,90,0.02,,,0.04,WUHU216HW,2013-02-28 17:44:00,
2013-02-28 09:49:00,41.0,38.3,30.44,North,0,5.4,6.3,90,0.01,,,0.04,WUHU216HW,2013-02-28 17:49:00,
2013-02-28 09:54:00,41.2,38.5,30.44,NNE,23,4.7,5.4,90,0.02,,,0.05,WUHU216HW,2013-02-28 17:54:00,
2013-02-28 09:59:00,41.2,38.5,30.44,NNE,23,2.5,4.7,90,0.02,,,0.05,WUHU216HW,2013-02-28 17:59:00,
2013-02-28 10:04:00,41.2,38.5,30.44,NE,45,3.1,4.5,90,0.03,,,0.06,WUHU216HW,2013-02-28 18:04:00,
2013-02-28 10:09:00,41.2,38.5,30.44,North,0,2.5,4.5,90,0.03,,,0.06,WUHU216HW,2013-02-28 18:09:00,
2013-02-28 10:14:00,41.4,38.7,30.44,NNE,23,2.5,4.3,90,0.03,,,0.06,WUHU216HW,2013-02-28 18:14:00,
2013-02-28 10:19:00,41.4,38.7,30.43,NNE,23,4.0,4.3,90,0.04,,,0.07,WUHU216HW,2013-02-28 18:19:00,
2013-02-28 10:24:00,41.6,38.9,30.43,NE,45,2.5,4.9,90,0.04,,,0.07,WUHU216HW,2013-02-28 18:24:00,
2013-02-28 10:29:00,41.8,39.1,30.43,NNE,23,3.4,6.5,90,0.05,,,0.07,WUHU216HW,2013-02-28 18:29:00,
2013-02-28 10:34:00,41.8,39.1,30.44,North,0,3.1,6.5,90,0.04,,,0.08,WUHU216HW,2013-02-28 18:34:00,
2013-02-28 10:39:00,41.8,39.1,30.44,NNE,23,3.8,4.0,90,0.05,,,0.08,WUHU216HW,2013-02-28 18:39:00,
2013-02-28 10:44:00,41.8,39.1,30.43,NNE,23,2.9,4.7,90,0.05,,,0.09,WUHU216HW,2013-02-28 18:44:00,
2013-02-28 10:49:00,41.9,39.2,30.44,NNE,23,4.7,4.7,90,0.05,,,0.10,WUHU216HW,2013-02-28 18:49:00,
2013-02-28 10:54:00,41.9,39.2,30.43,North,0,2.5,5.6,90,0.05,,,0.10,WUHU216HW,2013-02-28 18:54:00,
2013-02-28 10:59:00,41.9,39.2,30.43,North,0,2.9,6.5,90,0.06,,,0.11,WUHU216HW,2013-02-28 18:59:00,
2013-02-28 11:04:00,42.1,39.7,30.43,North,0,4.0,6.5,91,0.05,,,0.11,WUHU216HW,2013-02-28 19:04:00,
2013-02-28 11:09:00,42.1,39.7,30.44,NNE,23,3.1,4.9,91,0.05,,,0.11,WUHU216HW,2013-02-28 19:09:00,
2013-02-28 11:14:00,42.1,39.4,30.44,East,90,1.1,4.7,90,0.06,,,0.12,WUHU216HW,2013-02-28 19:14:00,
2013-02-28 11:19:00,42.1,39.4,30.44,NE,45,2.7,4.7,90,0.05,,,0.12,WUHU216HW,2013-02-28 19:19:00,
2013-02-28 11:24:00,42.3,39.6,30.44,ENE,68,0.4,4.3,90,0.05,,,0.12,WUHU216HW,2013-02-28 19:24:00,
2013-02-28 11:29:00,42.3,39.6,30.45,North,0,1.8,4.3,90,0.05,,,0.13,WUHU216HW,2013-02-28 19:29:00,
2013-02-28 11:34:00,42.5,39.8,30.45,NNE,23,1.1,3.4,90,0.05,,,0.13,WUHU216HW,2013-02-28 19:34:00,
2013-02-28 11:39:00,42.5,39.8,30.45,NE,45,0.2,3.4,90,0.05,,,0.14,WUHU216HW,2013-02-28 19:39:00,
2013-02-28 11:44:00,42.7,40.0,30.45,ENE,68,1.3,1.6,90,0.04,,,0.14,WUHU216HW,2013-02-28 19:44:00,
2013-02-28 11:49:00,42.8,40.1,30.45,North,0,4.3,4.3,90,0.04,,,0.14,WUHU216HW,2013-02-28 19:49:00,
2013-02-28 11:54:00,42.8,40.1,30.45,NE,45,1.6,4.7,90,0.04,,,0.14,WUHU216HW,2013-02-28 19:54:00,
2013-02-28 11:59:00,42.8,40.1,30.45,NNE,23,2.5,4.7,90,0.04,,,0.15,WUHU216HW,2013-02-28 19:59:00,
2013-02-28 12:04:00,42.8,40.1,30.45,NNE,23,2.0,4.3,90,0.04,,,0.15,WUHU216HW,2013-02-28 20:04:00,
2013-02-28 12:09:00,42.8,40.1,30.45,North,0,0.2,4.0,90,0.04,,,0.16,WUHU216HW,2013-02-28 20:09:00,
2013-02-28 12:14:00,42.8,40.1,30.45,ENE,68,2.5,4.0,90,0.04,,,0.16,WUHU216HW,2013-02-28 20:14:00,
2013-02-28 12:19:00,42.8,40.1,30.45,ENE,68,0.0,2.9,90,0.05,,,0.16,WUHU216HW,2013-02-28 20:19:00,
2013-02-28 12:24:00,42.8,40.1,30.46,SSE,158,0.4,1.6,90,0.04,,,0.17,WUHU216HW,2013-02-28 20:24:00,
2013-02-28 12:29:00,43.0,40.3,30.46,SE,135,0.0,1.6,90,0.05,,,0.18,WUHU216HW,2013-02-28 20:29:00,
2013-02-28 12:34:00,43.0,40.3,30.45,East,90,0.0,0.0,90,0.04,,,0.18,WUHU216HW,2013-02-28 20:34:00,
2013-02-28 12:39:00,43.2,40.5,30.46,ENE,68,0.0,0.7,90,0.04,,,0.18,WUHU216HW,2013-02-28 20:39:00,
2013-02-28 12:44:00,43.2,40.5,30.47,SW,225,1.1,1.1,90,0.05,,,0.19,WUHU216HW,2013-02-28 20:44:00,
2013-02-28 12:49:00,43.4,40.7,30.47,NNW,338,1.1,1.3,90,0.05,,,0.19,WUHU216HW,2013-02-28 20:49:00,
2013-02-28 12:54:00,43.4,40.7,30.47,NW,315,0.7,1.3,90,0.05,,,0.19,WUHU216HW,2013-02-28 20:54:00,
2013-02-28 12:59:00,43.4,40.7,30.47,NNW,338,0.0,1.1,90,0.05,,,0.20,WUHU216HW,2013-02-28 20:59:00,
2013-02-28 13:04:00,43.2,40.5,30.46,NNW,338,0.0,1.1,90,0.05,,,0.20,WUHU216HW,2013-02-28 21:04:00,
2013-02-28 13:09:00,43.2,40.5,30.46,NNW,338,0.7,1.1,90,0.04,,,0.20,WUHU216HW,2013-02-28 21:09:00,
2013-02-28 13:14:00,43.2,40.5,30.46,NNW,338,0.2,1.3,90,0.04,,,0.20,WUHU216HW,2013-02-28 21:14:00,
2013-02-28 13:19:00,43.2,40.5,30.47,NE,45,0.4,1.6,90,0.03,,,0.20,WUHU216HW,2013-02-28 21:19:00,
2013-02-28 13:24:00,43.4,40.7,30.46,NNW,338,1.1,1.6,90,0.02,,,0.20,WUHU216HW,2013-02-28 21:24:00,
2013-02-28 13:29:00,43.4,40.7,30.46,North,0,0.4,1.1,90,0.02,,,0.20,WUHU216HW,2013-02-28 21:29:00,
2013-02-28 13:34:00,43.4,41.0,30.47,NW,315,2.5,2.5,91,0.02,,,0.20,WUHU216HW,2013-02-28 21:34:00,
2013-02-28 13:40:00,43.2,40.8,30.47,NE,45,0.9,3.4,91,0.02,,,0.20,WUHU216HW,2013-02-28 21:40:00,
2013-02-28 13:45:00,43.2,40.8,30.47,NNW,338,1.1,3.4,91,0.01,,,0.20,WUHU216HW,2013-02-28 21:45:00,
2013-02-28 13:50:00,43.2,40.8,30.47,NE,45,3.6,3.6,91,0.01,,,0.20,WUHU216HW,2013-02-28 21:50:00,
2013-02-28 13:55:00,43.2,40.8,30.48,NNE,23,3.6,4.3,91,0.01,,,0.20,WUHU216HW,2013-02-28 21:55:00,
2013-02-28 14:00:00,43.0,40.6,30.48,North,0,1.8,4.3,91,0.00,,,0.20,WUHU216HW,2013-02-28 22:00:00,
2013-02-28 14:05:00,43.0,40.9,30.48,NNE,23,3.1,3.1,92,0.00,,,0.20,WUHU216HW,2013-02-28 22:05:00,
2013-02-28 14:10:00,43.0,40.9,30.48,NNW,338,3.4,3.4,92,0.00,,,0.20,WUHU216HW,2013-02-28 22:10:00,
2013-02-28 14:15:00,43.0,40.9,30.48,NNW,338,1.8,3.4,92,0.00,,,0.20,WUHU216HW,2013-02-28 22:15:00,
2013-02-28 14:20:00,43.0,40.9,30.48,North,0,1.3,4.3,92,0.00,,,0.20,WUHU216HW,2013-02-28 22:20:00,
2013-02-28 14:25:00,43.0,40.9,30.48,North,0,1.8,4.7,92,0.00,,,0.20,WUHU216HW,2013-02-28 22:25:00,
2013-02-28 14:30:00,43.0,40.9,30.49,North,0,1.8,4.7,92,0.00,,,0.20,WUHU216HW,2013-02-28 22:30:00,
2013-02-28 14:35:00,42.8,40.7,30.48,NNW,338,2.0,4.0,92,0.01,,,0.21,WUHU216HW,2013-02-28 22:35:00,
2013-02-28 14:40:00,42.8,40.7,30.48,North,0,2.2,4.5,92,0.01,,,0.21,WUHU216HW,2013-02-28 22:40:00,
2013-02-28 14:45:00,42.8,40.7,30.48,NNE,23,3.1,4.5,92,0.02,,,0.22,WUHU216HW,2013-02-28 22:45:00,
2013-02-28 14:50:00,42.8,41.0,30.48,NNE,23,4.0,4.0,93,0.02,,,0.22,WUHU216HW,2013-02-28 22:50:00,
2013-02-28 14:55:00,42.8,41.0,30.49,NNE,23,4.0,4.5,93,0.03,,,0.22,WUHU216HW,2013-02-28 22:55:00,
2013-02-28 15:00:00,43.0,41.1,30.49,NNW,338,2.9,4.5,93,0.03,,,0.23,WUHU216HW,2013-02-28 23:00:00,
2013-02-28 15:05:00,43.0,41.1,30.49,North,0,3.8,4.5,93,0.03,,,0.23,WUHU216HW,2013-02-28 23:05:00,
2013-02-28 15:10:00,43.0,41.1,30.49,North,0,3.6,4.5,93,0.04,,,0.24,WUHU216HW,2013-02-28 23:10:00,
2013-02-28 15:15:00,43.2,41.3,30.49,North,0,2.2,4.0,93,0.04,,,0.24,WUHU216HW,2013-02-28 23:15:00,
2013-02-28 15:20:00,43.0,41.1,30.49,NNW,338,2.0,4.0,93,0.04,,,0.24,WUHU216HW,2013-02-28 23:20:00,
2013-02-28 15:25:00,43.2,41.3,30.49,North,0,1.3,3.4,93,0.05,,,0.25,WUHU216HW,2013-02-28 23:25:00,
2013-02-28 15:30:00,43.2,41.3,30.49,North,0,3.4,4.7,93,0.04,,,0.25,WUHU216HW,2013-02-28 23:30:00,
2013-02-28 15:35:00,43.0,41.1,30.49,North,0,1.1,4.7,93,0.05,,,0.26,WUHU216HW,2013-02-28 23:35:00,
2013-02-28 15:40:00,43.0,41.1,30.48,North,0,3.1,4.0,93,0.05,,,0.27,WUHU216HW,2013-02-28 23:40:00,
2013-02-28 15:45:00,43.0,41.1,30.48,North,0,2.0,4.0,93,0.05,,,0.27,WUHU216HW,2013-02-28 23:45:00,
2013-02-28 15:50:00,43.2,41.3,30.48,NNE,23,2.9,3.8,93,0.05,,,0.27,WUHU216HW,2013-02-28 23:50:00,
2013-02-28 15:55:00,43.2,41.3,30.48,NNE,23,2.7,4.5,93,0.05,,,0.28,WUHU216HW,2013-02-28 23:55:00,
2013-02-28 16:00:00,43.4,41.5,30.47,NE,45,1.3,4.5,93,0.05,,,0.28,WUHU216HW,2013-03-01 00:00:00,
2013-02-28 16:05:00,43.7,41.9,30.47,ESE,113,3.4,5.1,93,0.05,,,0.29,WUHU216HW,2013-03-01 00:05:00,
2013-02-28 16:10:00,44.6,42.8,30.46,SE,135,1.8,5.4,93,0.05,,,0.29,WUHU216HW,2013-03-01 00:10:00,
2013-02-28 16:15:00,45.4,43.5,30.46,SE,135,2.2,5.4,93,0.05,,,0.29,WUHU216HW,2013-03-01 00:15:00,
2013-02-28 16:20:00,46.1,44.5,30.46,SE,135,3.4,5.4,94,0.04,,,0.29,WUHU216HW,2013-03-01 00:20:00,
2013-02-28 16:25:00,46.4,44.8,30.46,ESE,113,0.0,5.4,94,0.05,,,0.30,WUHU216HW,2013-03-01 00:25:00,
2013-02-28 16:30:00,46.6,45.0,30.46,ESE,113,3.4,4.3,94,0.04,,,0.30,WUHU216HW,2013-03-01 00:30:00,
2013-02-28 16:35:00,47.0,45.1,30.46,SE,135,2.5,3.8,93,0.04,,,0.30,WUHU216HW,2013-03-01 00:35:00,
2013-02-28 16:40:00,47.2,45.3,30.45,ESE,113,2.7,3.8,93,0.03,,,0.30,WUHU216HW,2013-03-01 00:40:00,
2013-02-28 16:45:00,47.5,45.4,30.46,SW,225,4.5,4.5,92,0.03,,,0.30,WUHU216HW,2013-03-01 00:45:00,
2013-02-28 16:50:00,47.9,45.7,30.45,SSE,158,4.9,9.2,92,0.02,,,0.30,WUHU216HW,2013-03-01 00:50:00,
2013-02-28 16:55:00,48.1,45.6,30.45,SSW,203,2.7,9.2,91,0.02,,,0.30,WUHU216HW,2013-03-01 00:55:00,
2013-02-28 17:00:00,48.2,45.8,30.45,SSE,158,4.3,5.4,91,0.02,,,0.30,WUHU216HW,2013-03-01 01:00:00,
2013-02-28 17:05:00,48.4,45.7,30.45,SE,135,3.6,8.5,90,0.02,,,0.31,WUHU216HW,2013-03-01 01:05:00,
2013-02-28 17:10:00,48.6,45.9,30.44,SSE,158,2.5,8.5,90,0.02,,,0.31,WUHU216HW,2013-03-01 01:10:00,
2013-02-28 17:15:00,48.6,45.5,30.44,ESE,113,6.9,6.9,89,0.02,,,0.31,WUHU216HW,2013-03-01 01:15:00,
2013-02-28 17:20:00,48.8,45.7,30.45,SSW,203,5.1,6.9,89,0.01,,,0.31,WUHU216HW,2013-03-01 01:20:00,
2013-02-28 17:25:00,49.0,45.5,30.44,SSE,158,4.7,6.5,88,0.01,,,0.31,WUHU216HW,2013-03-01 01:25:00,
2013-02-28 17:30:00,49.0,45.5,30.44,ESE,113,3.1,6.0,88,0.01,,,0.31,WUHU216HW,2013-03-01 01:30:00,
2013-02-28 17:35:00,49.0,45.5,30.44,SSE,158,5.4,6.0,88,0.01,,,0.31,WUHU216HW,2013-03-01 01:35:00,
2013-02-28 17:40:00,49.3,45.9,30.43,SE,135,5.1,12.1,88,0.01,,,0.31,WUHU216HW,2013-03-01 01:40:00,
2013-02-28 17:45:00,49.5,45.7,30.44,SE,135,9.2,12.1,87,0.01,,,0.31,WUHU216HW,2013-03-01 01:45:00,
2013-02-28 17:50:00,49.7,45.6,30.44,SSE,158,2.2,11.6,86,0.01,,,0.31,WUHU216HW,2013-03-01 01:50:00,
2013-02-28 17:55:00,49.7,45.6,30.44,SSE,158,3.8,10.5,86,0.01,,,0.31,WUHU216HW,2013-03-01 01:55:00,
2013-02-28 18:00:00,49.7,45.9,30.45,South,180,5.4,5.6,87,0.01,,,0.31,WUHU216HW,2013-03-01 02:00:00,
2013-02-28 18:05:00,49.7,45.9,30.45,SSE,158,2.7,7.8,87,0.01,,,0.32,WUHU216HW,2013-03-01 02:05:00,
2013-02-28 18:10:00,49.9,46.1,30.45,SSE,158,4.0,7.8,87,0.01,,,0.32,WUHU216HW,2013-03-01 02:10:00,
2013-02-28 18:15:00,49.9,46.1,30.45,SE,135,2.5,6.3,87,0.01,,,0.32,WUHU216HW,2013-03-01 02:15:00,
2013-02-28 18:20:00,49.9,46.1,30.45,South,180,4.7,6.3,87,0.01,,,0.32,WUHU216HW,2013-03-01 02:20:00,
2013-02-28 18:25:00,50.0,46.3,30.45,SE,135,5.4,7.6,87,0.01,,,0.32,WUHU216HW,2013-03-01 02:25:00,
2013-02-28 18:30:00,50.0,46.3,30.45,South,180,4.5,7.6,87,0.01,,,0.32,WUHU216HW,2013-03-01 02:30:00,
2013-02-28 18:35:00,49.9,46.1,30.44,SE,135,6.0,7.4,87,0.01,,,0.32,WUHU216HW,2013-03-01 02:35:00,
2013-02-28 18:40:00,50.0,46.3,30.44,SE,135,3.1,6.0,87,0.01,,,0.32,WUHU216HW,2013-03-01 02:40:00,
2013-02-28 18:45:00,50.0,46.3,30.44,ESE,113,2.5,5.8,87,0.01,,,0.32,WUHU216HW,2013-03-01 02:45:00,
2013-02-28 18:50:00,50.0,46.3,30.44,SSE,158,3.4,5.4,87,0.01,,,0.32,WUHU216HW,2013-03-01 02:50:00,
2013-02-28 18:55:00,50.0,46.3,30.44,SE,135,0.9,5.4,87,0.01,,,0.32,WUHU216HW,2013-03-01 02:55:00,
2013-02-28 19:00:00,50.2,46.5,30.44,SE,135,2.5,5.4,87,0.01,,,0.32,WUHU216HW,2013-03-01 03:00:00,
2013-02-28 19:05:00,50.2,46.5,30.44,North,0,2.5,7.6,87,0.00,,,0.32,WUHU216HW,2013-03-01 03:05:00,
2013-02-28 19:10:00,50.6,46.8,30.44,WSW,248,6.0,7.6,87,0.00,,,0.32,WUHU216HW,2013-03-01 03:10:00,
2013-02-28 19:15:00,50.8,47.0,30.44,South,180,5.4,8.9,87,0.01,,,0.33,WUHU216HW,2013-03-01 03:15:00,
2013-02-28 19:20:00,50.9,47.4,30.44,South,180,5.4,8.9,88,0.01,,,0.33,WUHU216HW,2013-03-01 03:20:00,
2013-02-28 19:25:00,51.1,47.4,30.43,SE,135,6.3,10.3,87,0.01,,,0.33,WUHU216HW,2013-03-01 03:25:00,
2013-02-28 19:30:00,51.3,47.5,30.43,ESE,113,5.1,10.5,87,0.01,,,0.33,WUHU216HW,2013-03-01 03:30:00,
2013-02-28 19:35:00,51.7,47.5,30.43,SSW,203,15.2,15.2,86,0.01,,,0.33,WUHU216HW,2013-03-01 03:35:00,
2013-02-28 19:40:00,51.8,47.4,30.42,SSW,203,6.9,15.2,85,0.01,,,0.33,WUHU216HW,2013-03-01 03:40:00,
2013-02-28 19:45:00,51.7,47.5,30.42,WSW,248,6.9,14.3,86,0.01,,,0.33,WUHU216HW,2013-03-01 03:45:00,
2013-02-28 19:50:00,51.7,47.5,30.42,SW,225,9.8,10.5,86,0.01,,,0.33,WUHU216HW,2013-03-01 03:50:00,
2013-02-28 19:55:00,51.5,47.3,30.42,SW,225,8.7,10.5,86,0.01,,,0.33,WUHU216HW,2013-03-01 03:55:00,
2013-02-28 20:00:00,51.5,47.3,30.43,South,180,8.5,11.6,86,0.01,,,0.33,WUHU216HW,2013-03-01 04:00:00,
2013-02-28 20:05:00,51.5,47.3,30.43,SE,135,3.6,11.6,86,0.01,,,0.33,WUHU216HW,2013-03-01 04:05:00,
2013-02-28 20:10:00,51.3,47.2,30.44,SSE,158,10.5,10.5,86,0.01,,,0.33,WUHU216HW,2013-03-01 04:10:00,
2013-02-28 20:15:00,51.5,47.3,30.45,South,180,4.0,10.5,86,0.00,,,0.33,WUHU216HW,2013-03-01 04:15:00,
2013-02-28 20:20:00,51.5,47.3,30.45,SE,135,11.2,11.2,86,0.00,,,0.33,WUHU216HW,2013-03-01 04:20:00,
2013-02-28 20:25:00,51.5,47.3,30.46,SSE,158,6.3,11.2,86,0.00,,,0.33,WUHU216HW,2013-03-01 04:25:00,
2013-02-28 20:30:00,51.5,47.3,30.45,NNE,23,2.2,9.2,86,0.00,,,0.33,WUHU216HW,2013-03-01 04:30:00,
2013-02-28 20:35:00,51.5,47.3,30.46,NE,45,1.3,9.2,86,0.00,,,0.33,WUHU216HW,2013-03-01 04:35:00,
2013-02-28 20:40:00,51.5,47.3,30.46,WSW,248,1.8,6.0,86,0.00,,,0.33,WUHU216HW,2013-03-01 04:40:00,
2013-02-28 20:45:00,51.5,47.3,30.46,SSW,203,2.7,11.4,86,0.00,,,0.33,WUHU216HW,2013-03-01 04:45:00,
2013-02-28 20:50:00,51.5,47.3,30.47,SSW,203,4.7,11.4,86,0.01,,,0.34,WUHU216HW,2013-03-01 04:50:00,
2013-02-28 20:55:00,51.5,47.3,30.48,SW,225,6.3,6.3,86,0.01,,,0.34,WUHU216HW,2013-03-01 04:55:00,
2013-02-28 21:00:00,51.5,47.3,30.48,South,180,3.6,6.3,86,0.01,,,0.34,WUHU216HW,2013-03-01 05:00:00,
2013-02-28 21:05:00,51.7,47.5,30.48,SSW,203,2.7,6.9,86,0.02,,,0.34,WUHU216HW,2013-03-01 05:05:00,
2013-02-28 21:06:00,51.7,47.5,30.48,SE,135,5.1,6.9,86,0.02,,,0.35,WUHU216HW,2013-03-01 05:06:00,
2013-02-28 21:11:00,51.7,47.5,30.48,SSE,158,1.8,5.4,86,0.02,,,0.35,WUHU216HW,2013-03-01 05:11:00,
2013-02-28 21:16:00,51.5,47.7,30.48,ESE,113,3.8,4.0,87,0.02,,,0.35,WUHU216HW,2013-03-01 05:16:00,
2013-02-28 21:21:00,51.5,47.7,30.48,SSW,203,2.0,4.0,87,0.02,,,0.35,WUHU216HW,2013-03-01 05:21:00,
2013-02-28 21:26:00,51.5,47.7,30.47,ESE,113,3.6,4.5,87,0.02,,,0.35,WUHU216HW,2013-03-01 05:26:00,
2013-02-28 21:31:00,51.5,47.7,30.48,SE,135,1.8,4.5,87,0.02,,,0.35,WUHU216HW,2013-03-01 05:31:00,
2013-02-28 21:36:00,51.5,48.0,30.49,SE,135,4.0,5.1,88,0.03,,,0.37,WUHU216HW,2013-03-01 05:36:00,
2013-02-28 21:41:00,51.5,48.0,30.49,South,180,4.0,9.8,88,0.03,,,0.37,WUHU216HW,2013-03-01 05:41:00,
2013-02-28 21:46:00,51.5,48.0,30.48,SSE,158,4.0,9.8,88,0.02,,,0.37,WUHU216HW,2013-03-01 05:46:00,
2013-02-28 21:51:00,51.5,48.0,30.48,SSW,203,7.6,7.6,88,0.02,,,0.37,WUHU216HW,2013-03-01 05:51:00,
2013-02-28 21:56:00,51.5,48.0,30.48,SSE,158,5.6,7.6,88,0.03,,,0.37,WUHU216HW,2013-03-01 05:56:00,
2013-02-28 22:01:00,51.5,48.0,30.48,SSE,158,6.3,6.3,88,0.04,,,0.37,WUHU216HW,2013-03-01 06:01:00,
2013-02-28 22:06:00,51.3,47.8,30.48,South,180,3.8,6.3,88,0.03,,,0.39,WUHU216HW,2013-03-01 06:06:00,
2013-02-28 22:11:00,51.5,48.0,30.48,South,180,4.7,5.4,88,0.03,,,0.39,WUHU216HW,2013-03-01 06:11:00,
2013-02-28 22:16:00,51.3,47.8,30.48,SSE,158,1.3,5.8,88,0.03,,,0.39,WUHU216HW,2013-03-01 06:16:00,
2013-02-28 22:21:00,51.5,48.0,30.48,SW,225,4.5,8.5,88,0.03,,,0.39,WUHU216HW,2013-03-01 06:21:00,
2013-02-28 22:26:00,51.3,47.8,30.48,South,180,8.3,8.5,88,0.03,,,0.39,WUHU216HW,2013-03-01 06:26:00,
2013-02-28 22:31:00,51.3,47.8,30.47,East,90,1.8,8.3,88,0.03,,,0.39,WUHU216HW,2013-03-01 06:31:00,
2013-02-28 22:36:00,51.3,47.8,30.47,SSW,203,0.4,7.2,88,0.03,,,0.39,WUHU216HW,2013-03-01 06:36:00,
2013-02-28 22:41:00,51.1,48.0,30.48,ENE,68,2.0,6.3,89,0.03,,,0.39,WUHU216HW,2013-03-01 06:41:00,
2013-02-28 22:46:00,51.1,47.6,30.48,ESE,113,1.1,6.3,88,0.03,,,0.39,WUHU216HW,2013-03-01 06:46:00,
2013-02-28 22:51:00,51.1,48.0,30.48,NNE,23,4.0,4.0,89,0.02,,,0.39,WUHU216HW,2013-03-01 06:51:00,
2013-02-28 22:56:00,51.1,48.0,30.48,SSW,203,4.0,7.4,89,0.02,,,0.39,WUHU216HW,2013-03-01 06:56:00,
2013-02-28 23:01:00,51.1,48.0,30.49,South,180,4.0,7.4,89,0.01,,,0.39,WUHU216HW,2013-03-01 07:01:00,
2013-02-28 23:06:00,51.3,47.8,30.48,SE,135,5.4,7.6,88,0.01,,,0.39,WUHU216HW,2013-03-01 07:06:00,
2013-02-28 23:11:00,51.3,47.8,30.48,SSW,203,4.3,7.6,88,0.01,,,0.39,WUHU216HW,2013-03-01 07:11:00,
2013-02-28 23:16:00,51.3,47.8,30.49,South,180,4.0,5.1,88,0.01,,,0.39,WUHU216HW,2013-03-01 07:16:00,
2013-02-28 23:21:00,51.3,47.8,30.50,SSW,203,2.5,5.8,88,0.01,,,0.39,WUHU216HW,2013-03-01 07:21:00,
2013-02-28 23:26:00,51.3,47.8,30.50,SE,135,5.6,7.4,88,0.02,,,0.40,WUHU216HW,2013-03-01 07:26:00,
2013-02-28 23:31:00,51.5,48.0,30.50,SW,225,7.6,9.2,88,0.02,,,0.40,WUHU216HW,2013-03-01 07:31:00,
2013-02-28 23:36:00,51.5,48.0,30.50,WSW,248,4.3,9.2,88,0.02,,,0.41,WUHU216HW,2013-03-01 07:36:00,
2013-02-28 23:41:00,51.5,48.0,30.50,SE,135,4.7,6.9,88,0.03,,,0.41,WUHU216HW,2013-03-01 07:41:00,
2013-02-28 23:59:00,51.3,47.8,30.50,East,90,4.0,4.0,88,0.03,,,0.00,WUHU216HW,2013-03-01 07:59:00,